Regional Weather Roundup
Issued by NWS

Home | Current Version | Previous Version | Text Only | Print | Product List | Glossary On
Versions: 1 2 3 4 5 6 7 8 9 10 11 12 13 14 15 16 17 18 19 20 21 22 23 24 25 26 27 28
000
ASUS42 KTBW 272317
RWRFL
FLORIDA REGIONAL WEATHER ROUNDUP
NATIONAL WEATHER SERVICE TAMPA BAY RUSKIN FL
700 PM EDT FRI MAY 27 2016

NOTE: "FAIR" INDICATES FEW OR NO CLOUDS BELOW 12,000 FEET WITH NO
SIGNIFICANT WEATHER AND/OR OBSTRUCTIONS TO VISIBILITY.

FLZ001>010-012>015-112-114-115-280000-
PANHANDLE FLORIDA

CITY           SKY/WX    TMP DP  RH WIND       PRES   REMARKS
PENSACOLA      CLOUDY    80  69  69 SE16      29.95S
MILTON NAS     CLOUDY    82  67  60 S13       29.95
CRESTVIEW      CLOUDY    80  67  64 S13       29.97S
DUKE FIELD     FAIR      79  67  67 S12       29.95S
VALPARAISO     PTSUNNY   79  67  68 S9        29.96S
MARY ESTHER    CLOUDY    79  66  64 S13       29.95S
TRI COUNTY     FAIR      85  61  44 E6        29.95F
PANAMA CITY    FAIR      82  66  58 S10       29.94F
TYNDALL AFB    SUNNY     81  69  67 S16       29.95F
APALACHICOLA   SUNNY     80  67  64 S8        29.97F

STATION/POSITION SKY/WX   TEMP    WIND        PRES    WAVE   SWELL
                          AIR SEA DIR/SP/G            HT/PER HT/PER
                          (F)     (DEG/KT/KT) (MB)    (FT/S) (FT/S)
30.1N   87.6W              78 80  140/ 16/ 17 1013.0F   3/ 5
29.2N   88.2W              79 80  130/ 16/ 17 1013.3S
28.8N   86.0W              78 81  110/ 12/ 16 1014.2F   3/ 5
PANAMA CITY BEAC                              1015.2F
TOWER C                    77      80/  3/  3 1015.4F
28.5N   84.5W              78 79   70/  6/  6 1014.1F   2/ 5   2/ 5

$$
FLZ011-016>038-118-127-128-134-139-239-280000-
NORTH FLORIDA

CITY           SKY/WX    TMP DP  RH WIND       PRES   REMARKS
MARIANNA       SUNNY     86  57  37 VRB3      29.94F
TALLAHASSEE    PTSUNNY   87  56  34 SE7       29.96F
PERRY          MOSUNNY   83  66  55 SW7       29.97S
LIVE OAK       FAIR      86  64  48 E10G17    29.99S
CROSS CITY       N/A     88  58  36 E5        29.95S
LAKE CITY      FAIR      81  64  57 E9        29.99F
GAINESVILLE    MOSUNNY   81  64  56 E13       29.98S
WILLISTON      FAIR      84  63  48 E7        29.97S
PALATKA        FAIR      81  81 100 E13       30.00S
MAYPORT NAS    MOSUNNY   79  65  62 E14       30.01F
JACKSONVILLE   PTSUNNY   78  65  63 E14       30.01F
JAX NAS        PTSUNNY   80  68  66 E7        30.02S
JAX CECIL      PTSUNNY   77  66  69 NE16      30.01F
FERNANDINA BEA FAIR      82  64  54 E10       30.01F
ST AUGUSTINE   CLOUDY    79  68  69 E13       30.02F
PALM COAST     MOSUNNY   79  68  69 E12       30.00F

STATION/POSITION SKY/WX   TEMP    WIND        PRES    WAVE   SWELL
                          AIR SEA DIR/SP/G            HT/PER HT/PER
                          (F)     (DEG/KT/KT) (MB)    (FT/S) (FT/S)
SHELL POINT                82     190/  7/ 10 1014.0
KEATON BEACH               79     300/  9/ 11 1014.4F
CEDAR KEY                  81     310/  8/ 11 1014.5F
FERNANDINA                                    1016.9F
30.7N   81.3W                 78                N/A     3/ 6
MAYPORT                                       1017.0F
31.4N   80.9W              77 77   80/ 10/ 12 1017.1F   3/ 6   3/ 6
ST AUGUSTINE               77 80   90/ 12/ 14 1017.0F

$$
FLZ040-043>046-052-053-057-058-063-144-280000-
INTERIOR CENTRAL FLORIDA

CITY           SKY/WX    TMP DP  RH WIND       PRES   REMARKS
OCALA          MOSUNNY   84  61  45 E7        29.97F
THE VILLAGES     N/A     82  66  57 SE8       29.87S
LEESBURG       PTSUNNY   83  63  50 E10       29.97F
SANFORD        MOSUNNY   81  65  58 E12       29.97F
ORLANDO EXEC   CLOUDY    83  67  58 E13       29.97F
ORLANDO INTL   LGT RAIN  80  67  64 E8        29.97F
KISSIMMEE      PTSUNNY   81  70  69 E16       29.97F
WINTER HAVEN   MOSUNNY   83  63  50 NE6       29.97S
LAKELAND       MOSUNNY   84  66  54 E10G17    29.95F
BARTOW         FAIR      82  61  47 E10G20    29.96S
OKEECHOBEE     MOSUNNY   77  68  73 NE8       29.97R

$$
FLZ041-047-054-059-064-141-147-280000-
EAST CENTRAL FLORIDA

CITY           SKY/WX    TMP DP  RH WIND       PRES   REMARKS
ORMOND BEACH   MOSUNNY   79  66  65 E13       30.00F
DAYTONA BEACH  MOSUNNY   79  67  66 E14       30.00F
DELAND           N/A     79  66  65 NE10      30.00S
NEW SMYRNA BEA MOSUNNY   79  68  69 E15       30.01F
JFK SPACE CTR  PTSUNNY   79  68  67 E8        29.98S
TITUSVILLE     MOSUNNY   79  72  78 E17       29.99
CAPE CANAVERAL MOSUNNY   80  69  68 E7        29.97S
PATRICK AFB    SUNNY     80  70  70 NE12      29.97S
MELBOURNE      MOSUNNY   80  69  69 NE13      29.97S
VERO BEACH     CLOUDY    81  70  69 NE13      29.96F
FT PIERCE      CLOUDY    79  71  76 E10       29.95F
STUART         TSTM      77  73  88 E12G21    29.96F

STATION/POSITION SKY/WX   TEMP    WIND        PRES    WAVE   SWELL
                          AIR SEA DIR/SP/G            HT/PER HT/PER
                          (F)     (DEG/KT/KT) (MB)    (FT/S) (FT/S)
28.5N   80.2W              79 79   60/ 14/ 16 1015.3F
28.9N   78.5W              78 78   50/ 14/ 16 1015.1F
TRIDENT PIER                                  1015.3F
28.4N   80.5W                 81                N/A     3/ 8
27.5N   80.2W                 79                N/A     4/ 5

$$
FLZ050-056-061-142-242-148-248-149-249-151-251-155-255-
160-260-280000-
WEST CENTRAL FLORIDA

CITY           SKY/WX    TMP DP  RH WIND       PRES   REMARKS
CRYSTAL RIVER  PTSUNNY   86  64  48 E13G18    29.95S
INVERNESS      FAIR      84  68  58 NE13      29.96S
BROOKSVILLE    SUNNY     85  63  47 E9        29.95S
ZEPHYRHILLS    FAIR      83  62  48 E7        29.95S
CLEARWATER AIR FAIR      81  70  69 NW9       29.93S
ST PETE CLEARW MOSUNNY   86  67  52 NW7       29.92F
TAMPA INTL     PTSUNNY   88  61  40 E8        29.93
TAMPA EXEC     SUNNY     88  61  40 E7        29.93F
PLANT CITY     MOSUNNY   86  68  54 E9        29.96S
MACDILL AFB    MOSUNNY   87  64  46 E9        29.92F
PETER O KNIGHT SUNNY     90  64  43 E9        29.93S
ST PETERSBURG  PTSUNNY   85  66  53 E16       29.91F
SARASOTA       PTSUNNY   86  66  51 NW13      29.90F
VENICE         NOT AVBL

STATION/POSITION SKY/WX   TEMP    WIND        PRES    WAVE   SWELL
                          AIR SEA DIR/SP/G            HT/PER HT/PER
                          (F)     (DEG/KT/KT) (MB)    (FT/S) (FT/S)
27.3N   84.2W                 81                N/A     2/ 5
CLEARWATER BEACH                              1013.9F
MIDDLE TAMPA BAY NOT AVBL
VENICE                     81 81  330/ 11/ 12 1012.7F

$$
FLZ066-069-070-075>078-162-262-165-265-280000-
SOUTHWEST FLORIDA AND KEYS

CITY           SKY/WX    TMP DP  RH WIND       PRES   REMARKS
PUNTA GORDA    PTSUNNY   85  66  53 E14       29.93R
FT MYERS       MOSUNNY   85  65  51 E12       29.90S
SOUTHWEST INTL SUNNY     86  64  47 E18       29.91S
NAPLES         CLOUDY    84  69  60 NW7       29.91R
MARCO ISLAND   CLOUDY    79  70  73 S7        29.92R
MARATHON       SUNNY     83  69  62 E6        29.91S
KEY WEST NAS   MOSUNNY   83  68  60 E10       29.90F
KEY WEST INTL  SUNNY     83  70  64 E8        29.91S

STATION/POSITION SKY/WX   TEMP    WIND        PRES    WAVE   SWELL
                          AIR SEA DIR/SP/G            HT/PER HT/PER
                          (F)     (DEG/KT/KT) (MB)    (FT/S) (FT/S)
NAPLES                                        1012.6F
26.0N   85.6W              80 81   90/ 14/ 16 1013.2R   4/ 6   2/16
DRY TORTUGAS               81      90/ 13/ 14 1012.7F
SAND KEY                   81     100/ 10/ 12 1013.0F
LONG KEY                   81 84   80/  9/ 10 1013.0F
MOLASSES REEF              81 84   70/ 11/ 12 1013.0F

$$
FLZ067-068-071>074-168-172>174-280000-
SOUTHEAST FLORIDA

CITY           SKY/WX    TMP DP  RH WIND       PRES   REMARKS
W PALM BEACH   CLOUDY    80  69  69 E10       29.95F
FT LAUDER-EXEC MOSUNNY   81  69  67 NE12      29.93S
FT LAUDERDALE  PTSUNNY   81  70  69 E9        29.92S
POMPANO BEACH  MOSUNNY   81  69  67 E10       29.93S
PEMBROKE PINES SUNNY     83  70  64 E12       29.94S
OPA LOCKA      PTSUNNY   82  70  66 E10       29.92F
MIAMI          PTSUNNY   81  70  69 E14G20    29.92F
WEST KENDALL   SUNNY     80  70  71 E14       29.92S
HOMESTEAD      MOSUNNY   82  71  70 NE10      29.91F

STATION/POSITION SKY/WX   TEMP    WIND        PRES    WAVE   SWELL
                          AIR SEA DIR/SP/G            HT/PER HT/PER
                          (F)     (DEG/KT/KT) (MB)    (FT/S) (FT/S)
PORT EVERGLADES            80      60/ 11/ 14 1013.4F
VIRGINIA KEY                                  1013.7R
LAKE WORTH                                    1014.0F
FOWEY ROCKS                80 83   50/ 12/ 13 1013.6F
SETTLEMENT POINT           79      60/ 11/ 12 1014.4F

$$





USA.gov is the U.S. government's official web portal to all federal, state and local government web resources and services.